This is the latest recevied weather packets stored in our database for station/object CE4JVU-10. If no packets are shown the sender has not sent any weather packets the latest 10 day(s).
| Time | Temp. | Humidity | Pressure | Rain* | Wind** | Luminosity | Snow |
|---|---|---|---|---|---|---|---|
| 1787459789 | 17.78° C | 62% | 980.6 hPa | - | - | - | - |
| 1787458889 | 17.78° C | 62% | 980.5 hPa | - | - | - | - |
| 1787457989 | 17.78° C | 62% | 980.6 hPa | - | - | - | - |
| 1787457089 | 17.78° C | 61% | 980.6 hPa | - | - | - | - |
| 1787456189 | 17.78° C | 61% | 980.5 hPa | - | - | - | - |
| 1787455289 | 18.33° C | 60% | 980.6 hPa | - | - | - | - |
| 1787454389 | 18.33° C | 61% | 980.5 hPa | - | - | - | - |
| 1787453489 | 18.89° C | 61% | 980.1 hPa | - | - | - | - |
| 1787452588 | 19.44° C | 62% | 980.1 hPa | - | - | - | - |
| 1787451688 | 19.44° C | 58% | 980.2 hPa | - | - | - | - |
| 1787450792 | 18.89° C | 57% | 980.1 hPa | - | - | - | - |
| 1787449892 | 19.44° C | 56% | 980 hPa | - | - | - | - |
| 1787448992 | 19.44° C | 55% | 979.9 hPa | - | - | - | - |
| 1787448092 | 19.44° C | 55% | 980 hPa | - | - | - | - |
| 1787447192 | 20° C | 54% | 979.9 hPa | - | - | - | - |
| 1787446292 | 20° C | 55% | 980.1 hPa | - | - | - | - |
| 1787445392 | 19.44° C | 57% | 980.3 hPa | - | - | - | - |
| 1787444491 | 19.44° C | 58% | 980.2 hPa | - | - | - | - |
| 1787443591 | 20° C | 58% | 980.3 hPa | - | - | - | - |
| 1787442691 | 21.11° C | 54% | 980.2 hPa | - | - | - | - |
| 1787441791 | 21.11° C | 54% | 980.1 hPa | - | - | - | - |
| 1787440891 | 21.11° C | 54% | 980.3 hPa | - | - | - | - |
| 1787439991 | 21.67° C | 52% | 980.1 hPa | - | - | - | - |
| 1787439091 | 20.56° C | 53% | 979.9 hPa | - | - | - | - |
| 1787438191 | 21.11° C | 52% | 979.7 hPa | - | - | - | - |
* Rain since midnight (hover to see other rain measurements)
** Current wind speed in m/s (hover to see current wind gust speed)